Home   Weather   Boston   Past weeks
Flag for USA

Past Weather in Boston, Massachusetts, USA — July 2016

Now
86 °F

Scattered clouds.


Feels Like: 84 °F
Forecast: 84 / 70 °F
Wind: 13 mph from West

Location: Logan International Airport

Current Time: Jul 15, 2019 at 5:07:01 pm

Latest Report: Jul 15, 2019 at 3:54 pm


Visibility: 10 mi

Pressure: 29.97 "Hg

Humidity: 32%

Dew Point: 53 °F

Location of BostonLocation

July 2016 Weather in Boston — Graph

°F

High & Low Weather Summary for July 2016

 TemperatureHumidityPressure
High97 °F (Jul 22, 3:54 pm)100% (Jul 5, 10:02 am)30.20 "Hg (Jul 5, 10:02 am)
Low59 °F (Jul 9, 5:54 am)25% (Jul 4, 3:54 pm)29.70 "Hg (Jul 22, 5:54 pm)
Average75 °F64%29.93 "Hg
* Reported Jul 1 12:54 am — Jul 31 11:54 pm, Boston. Weather by CustomWeather, © 2019

Note: Actual official high and low records may vary slightly from our data, if they occured in-between our weather recording intervals... More about our weather records

Advertising

Boston Weather History for July 1, 2016

Scroll right to see more
 ConditionsComfort  
Time TempWeatherWind HumidityBarometerVisibility
12:54 am
Fri, Jul 1
74 °FOvercast.10 mph57%30.01 "Hg10 mi
1:54 am71 °FPartly cloudy.6 mph63%30.01 "Hg10 mi
2:54 am70 °FPartly cloudy.5 mph66%30.01 "Hg10 mi
3:54 am70 °FPassing clouds.7 mph66%30.01 "Hg10 mi
4:54 am70 °FPassing clouds.6 mph66%30.02 "Hg10 mi
5:54 am68 °FPassing clouds.7 mph73%30.01 "Hg10 mi
6:54 am71 °FScattered clouds.6 mph68%30.02 "Hg10 mi
7:54 am72 °FScattered clouds.6 mph68%30.02 "Hg10 mi
8:54 am76 °FScattered clouds.9 mph62%30.01 "Hg10 mi
9:54 am79 °FPartly sunny.8 mph58%30.01 "Hg10 mi
10:54 am83 °FBroken clouds.10 mph46%30.00 "Hg10 mi
11:54 am84 °FBroken clouds.20 mph41%29.99 "Hg10 mi
12:54 pm84 °FMore clouds than sun.16 mph43%29.97 "Hg10 mi
1:54 pm84 °FMore clouds than sun.18 mph43%29.97 "Hg10 mi
2:54 pm83 °FMore clouds than sun.17 mph51%29.95 "Hg10 mi
3:54 pm80 °FMore clouds than sun.18 mph58%29.92 "Hg10 mi
4:54 pm80 °FCloudy.22 mph60%29.91 "Hg10 mi
5:54 pm76 °FCloudy.16 mph69%29.90 "Hg10 mi
6:54 pm75 °FBroken clouds.12 mph71%29.90 "Hg10 mi
7:54 pm73 °FMostly cloudy.7 mph76%29.88 "Hg10 mi
9:01 pm72 °FThunderstorms. Cloudy.8 mph88%29.86 "Hg10 mi
9:54 pm72 °FThunderstorms. Fog.16 mph87%29.87 "Hg4 mi
10:54 pm71 °FMostly cloudy.14 mph84%29.83 "Hg10 mi
11:54 pm70 °FPassing clouds.8 mph90%29.82 "Hg10 mi
Weather by CustomWeather, © 2019

See weather overview

LIVE PARTIAL LUNAR ECLIPSE – Watch the eclipse as it happens